Terminal Aerodrome Forecast
Issued by NWS Grand Junction, CO

Home | Current Version | Previous Version | Text Only | Print | Product List | Glossary On
Versions: 1 2 3 4 5 6 7 8 9 10 11 12 13 14 15 16 17 18 19 20 21 22 23 24 25
000
FTUS45 KGJT 270156 AAE
TAFGJT
TAF AMD
KGJT 270156Z 2702/2724 11012KT P6SM VCSH SCT080 SCT120
      TEMPO 2702/2703 -SHRA BKN080 OVC120
     FM270300 10008KT P6SM SCT150
     FM270700 13007KT P6SM SKC
     FM271900 29007KT P6SM SKC=

USA.gov is the U.S. government's official web portal to all federal, state and local government web resources and services.